Вернуться в каталог

IRIDIUM 47 DEB

АктивенPO
NORAD 40255·DEBRIS·🇺🇸 United States

Запущен Dec 20, 1997 с Vandenberg Space Force Base

Loading…

Ближайшие Пролёты (ближайшие 24 часа)

TLE

СвежийSource: Space-Track

Эпоха: Sep 14, 2026, 11:27 UTC

1 40255U 97082Q   26257.47775312  .00004026  00000-0  10702-2 0  9994
2 40255  86.2736 321.8115 0124866 316.6181  42.5242 14.43829005617283

Отслеживайте IRIDIUM 47 DEB в реальном времени с AllMySat

Download on the App Store